When you browse on this site, cookies collect data to enhance your experience and personalize the content and advertising you see.
Visit our Privacy Policy to learn more. By continuing to use the site, you agree to this use of cookies and data.
  • In United Kingdom
  • List of Countries
  • For 7 days
  • Water Temperature
  • Satellite Maps
  • Weather Map
  • Weather Widgets
  • user-avatar
    Login

    Hourly Weather Carmarthen

    Today, 20 June, Thursday

    Time Temperature Precipitation Wind Pressure Humidity
    00:00 +8°C° 0 mm 4 mps 752 mmHg 96%
    01:00 +7°C° 0 mm 4 mps 752 mmHg 96%
    02:00 +6°C° 0 mm 5 mps 752 mmHg 96%
    03:00 +6°C° 0 mm 5 mps 752 mmHg 96%
    04:00 +6°C° 0 mm 5 mps 753 mmHg 96%
    05:00 +5°C° 0 mm 6 mps 753 mmHg 96%
    06:00 +7°C° 0 mm 5 mps 753 mmHg 96%
    07:00 +8°C° 0 mm 5 mps 753 mmHg 90%
    08:00 +10°C° 0 mm 5 mps 754 mmHg 84%
    09:00 +12°C° 0 mm 5 mps 754 mmHg 78%
    10:00 +12°C° 0.3 mm 5 mps 754 mmHg 79%
    11:00 +12°C° 0.3 mm 5 mps 754 mmHg 80%
    12:00 +13°C° 0.3 mm 4 mps 754 mmHg 81%
    13:00 +13°C° 0.4 mm 3 mps 755 mmHg 80%
    14:00 +13°C° 0.4 mm 3 mps 755 mmHg 80%
    15:00 +15°C° 0.4 mm 2 mps 755 mmHg 79%
    16:00 +14°C° 0.6 mm 2 mps 755 mmHg 81%
    17:00 +14°C° 0.6 mm 2 mps 755 mmHg 84%
    18:00 +12°C° 0.6 mm 3 mps 755 mmHg 86%
    19:00 +12°C° 0.1 mm 2 mps 756 mmHg 88%
    20:00 +10°C° 0.1 mm 1 mps 756 mmHg 90%
    21:00 +9°C° 0.1 mm 1 mps 756 mmHg 92%
    22:00 +8°C° 0 mm 1 mps 757 mmHg 93%
    23:00 +7°C° 0 mm 2 mps 757 mmHg 93%

    Tomorrow, 21 June, Friday

    Time Temperature Precipitation Wind Pressure Humidity
    00:00 +5°C° 0 mm 3 mps 757 mmHg 94%
    01:00 +5°C° 0 mm 4 mps 758 mmHg 95%
    02:00 +5°C° 0 mm 4 mps 758 mmHg 96%
    03:00 +3°C° 0 mm 5 mps 758 mmHg 96%
    04:00 +5°C° 0 mm 5 mps 758 mmHg 96%
    05:00 +5°C° 0 mm 4 mps 759 mmHg 96%
    06:00 +6°C° 0 mm 4 mps 759 mmHg 96%
    07:00 +8°C° 0 mm 4 mps 760 mmHg 90%
    08:00 +10°C° 0 mm 3 mps 760 mmHg 84%
    09:00 +12°C° 0 mm 3 mps 760 mmHg 78%
    10:00 +13°C° 0.1 mm 3 mps 761 mmHg 74%
    11:00 +14°C° 0.1 mm 3 mps 761 mmHg 70%
    12:00 +16°C° 0.1 mm 3 mps 761 mmHg 65%
    13:00 +16°C° 0.1 mm 3 mps 761 mmHg 67%
    14:00 +16°C° 0.1 mm 3 mps 762 mmHg 68%
    15:00 +16°C° 0.1 mm 3 mps 762 mmHg 70%
    16:00 +16°C° 0.2 mm 3 mps 762 mmHg 74%
    17:00 +14°C° 0.2 mm 4 mps 762 mmHg 79%
    18:00 +14°C° 0.2 mm 4 mps 762 mmHg 84%
    19:00 +12°C° 0.1 mm 4 mps 762 mmHg 87%
    20:00 +11°C° 0.1 mm 4 mps 762 mmHg 89%
    21:00 +8°C° 0.1 mm 4 mps 763 mmHg 92%
    22:00 +8°C° 0 mm 4 mps 762 mmHg 92%
    23:00 +8°C° 0 mm 4 mps 762 mmHg 92%

    Day after tomorrow, 22 June, Saturday

    Time Temperature Precipitation Wind Pressure Humidity
    00:00 +9°C° 0 mm 3 mps 762 mmHg 92%
    01:00 +9°C° 0 mm 3 mps 762 mmHg 93%
    02:00 +10°C° 0 mm 3 mps 762 mmHg 93%
    03:00 +10°C° 0 mm 3 mps 762 mmHg 94%
    04:00 +11°C° 0.2 mm 3 mps 762 mmHg 95%
    05:00 +11°C° 0.2 mm 3 mps 762 mmHg 95%
    06:00 +12°C° 0.2 mm 3 mps 762 mmHg 96%
    07:00 +13°C° 0 mm 3 mps 762 mmHg 92%
    08:00 +13°C° 0 mm 4 mps 762 mmHg 87%
    09:00 +14°C° 0 mm 5 mps 762 mmHg 83%
    10:00 +15°C° 0.1 mm 5 mps 762 mmHg 79%
    11:00 +16°C° 0.1 mm 5 mps 762 mmHg 75%
    12:00 +17°C° 0.1 mm 6 mps 762 mmHg 71%
    13:00 +17°C° 0 mm 5 mps 762 mmHg 71%
    14:00 +16°C° 0 mm 5 mps 762 mmHg 71%
    15:00 +16°C° 0 mm 5 mps 762 mmHg 71%
    16:00 +17°C° 0 mm 4 mps 762 mmHg 74%
    17:00 +15°C° 0 mm 4 mps 761 mmHg 77%
    18:00 +14°C° 0 mm 4 mps 761 mmHg 79%
    19:00 +13°C° 0 mm 3 mps 761 mmHg 80%
    20:00 +12°C° 0 mm 3 mps 761 mmHg 81%
    21:00 +12°C° 0 mm 2 mps 762 mmHg 82%
    22:00 +10°C° 0 mm 2 mps 761 mmHg 81%
    23:00 +10°C° 0 mm 2 mps 761 mmHg 81%

    23 June, Sunday

    Time Temperature Precipitation Wind Pressure Humidity
    00:00 +10°C° 0 mm 2 mps 761 mmHg 80%
    01:00 +10°C° 0 mm 2 mps 761 mmHg 82%
    02:00 +10°C° 0 mm 2 mps 761 mmHg 85%
    03:00 +10°C° 0 mm 3 mps 761 mmHg 87%
    04:00 +11°C° 0 mm 3 mps 761 mmHg 88%
    05:00 +12°C° 0 mm 4 mps 761 mmHg 89%
    06:00 +13°C° 0 mm 4 mps 761 mmHg 89%
    07:00 +14°C° 0 mm 4 mps 761 mmHg 85%
    08:00 +15°C° 0 mm 5 mps 761 mmHg 81%
    09:00 +16°C° 0 mm 5 mps 761 mmHg 76%
    10:00 +16°C° 0 mm 5 mps 761 mmHg 77%
    11:00 +17°C° 0 mm 5 mps 761 mmHg 78%
    12:00 +17°C° 0 mm 5 mps 761 mmHg 78%
    13:00 +18°C° 0 mm 4 mps 761 mmHg 78%
    14:00 +17°C° 0 mm 4 mps 761 mmHg 77%
    15:00 +17°C° 0 mm 4 mps 761 mmHg 77%
    16:00 +17°C° 0 mm 3 mps 761 mmHg 80%
    17:00 +16°C° 0 mm 3 mps 761 mmHg 83%
    18:00 +16°C° 0 mm 2 mps 760 mmHg 86%
    19:00 +16°C° 0.1 mm 3 mps 761 mmHg 84%
    20:00 +14°C° 0.1 mm 3 mps 761 mmHg 82%
    21:00 +14°C° 0.1 mm 4 mps 761 mmHg 80%
    22:00 +14°C° 1.8 mm 4 mps 760 mmHg 86%
    23:00 +14°C° 1.8 mm 5 mps 760 mmHg 92%

    24 June, Monday

    Time Temperature Precipitation Wind Pressure Humidity
    00:00 +14°C° 1.8 mm 5 mps 760 mmHg 98%
    01:00 +13°C° 2.9 mm 6 mps 759 mmHg 98%
    02:00 +12°C° 2.9 mm 7 mps 759 mmHg 98%
    03:00 +12°C° 2.9 mm 7 mps 758 mmHg 98%
    04:00 +12°C° 0.2 mm 7 mps 758 mmHg 98%
    05:00 +14°C° 0.2 mm 7 mps 757 mmHg 98%
    06:00 +14°C° 0.2 mm 7 mps 757 mmHg 98%
    07:00 +14°C° 2 mm 6 mps 757 mmHg 98%
    08:00 +14°C° 2 mm 4 mps 757 mmHg 98%
    09:00 +14°C° 2 mm 3 mps 757 mmHg 99%
    10:00 +16°C° 1.2 mm 2 mps 757 mmHg 97%
    11:00 +17°C° 1.2 mm 2 mps 757 mmHg 96%
    12:00 +19°C° 1.2 mm 1 mps 758 mmHg 95%
    13:00 +18°C° 0 mm 2 mps 758 mmHg 90%
    14:00 +19°C° 0 mm 3 mps 758 mmHg 86%
    15:00 +20°C° 0 mm 4 mps 759 mmHg 81%
    16:00 +20°C° 0.1 mm 4 mps 759 mmHg 84%
    17:00 +20°C° 0.1 mm 5 mps 760 mmHg 86%
    18:00 +20°C° 0.1 mm 5 mps 760 mmHg 88%
    19:00 +17°C° 0 mm 5 mps 761 mmHg 91%
    20:00 +17°C° 0 mm 4 mps 762 mmHg 93%
    21:00 +15°C° 0 mm 4 mps 762 mmHg 96%
    22:00 +14°C° 0 mm 3 mps 762 mmHg 96%
    23:00 +14°C° 0 mm 3 mps 763 mmHg 95%

    25 June, Tuesday

    Time Temperature Precipitation Wind Pressure Humidity
    00:00 +14°C° 0 mm 2 mps 763 mmHg 95%
    01:00 +14°C° 0 mm 2 mps 763 mmHg 95%
    02:00 +14°C° 0 mm 1 mps 763 mmHg 96%
    03:00 +14°C° 0 mm 1 mps 763 mmHg 96%
    04:00 +14°C° 0 mm 1 mps 763 mmHg 96%
    05:00 +15°C° 0 mm 2 mps 764 mmHg 96%
    06:00 +16°C° 0 mm 2 mps 764 mmHg 97%
    07:00 +17°C° 0 mm 2 mps 764 mmHg 95%
    08:00 +17°C° 0 mm 3 mps 764 mmHg 92%
    09:00 +18°C° 0 mm 3 mps 764 mmHg 90%
    10:00 +18°C° 0 mm 3 mps 764 mmHg 88%
    11:00 +19°C° 0 mm 4 mps 764 mmHg 86%
    12:00 +19°C° 0 mm 4 mps 764 mmHg 84%
    13:00 +20°C° 0 mm 5 mps 764 mmHg 83%
    14:00 +21°C° 0 mm 5 mps 763 mmHg 81%
    15:00 +21°C° 0 mm 6 mps 763 mmHg 79%
    16:00 +21°C° 0 mm 6 mps 763 mmHg 81%
    17:00 +21°C° 0 mm 5 mps 763 mmHg 83%
    18:00 +21°C° 0 mm 5 mps 763 mmHg 85%
    19:00 +20°C° 0 mm 5 mps 764 mmHg 85%
    20:00 +19°C° 0 mm 6 mps 764 mmHg 86%
    21:00 +17°C° 0 mm 6 mps 764 mmHg 87%
    22:00 +16°C° 0 mm 6 mps 764 mmHg 87%
    23:00 +16°C° 0 mm 6 mps 764 mmHg 87%
    Show more